Weather History for Bedford, MA

Change the Weather History Date:

Saturday, March 2, 2013

  Actual Average Record
Temperature  
Mean Temperature 36 °F -  
Max Temperature 42 °F 41 °F 66 °F (2004)
Min Temperature 30 °F 23 °F 3 °F (1978)
Degree Days  
Heating Degree Days 29    
Moisture  
Dew Point 25 °F    
Average Humidity 63    
Maximum Humidity 72    
Minimum Humidity 53    
Precipitation  
Precipitation 0.00 in - - ()
Sea Level Pressure  
Sea Level Pressure 29.69 in    
Wind  
Wind Speed 7 mph (NW)    
Max Wind Speed 12 mph    
Max Gust Speed -    
Visibility 10 miles    
Events      
Averages and records for this station are not official NWS values.
T = Trace of Precipitation, MM = Missing Value Source: NWS Daily Summary

Daily Weather History Graph

Daily Weather History Graph

Search for Another Location

Airport:

Trip Planner

Search our weather history database for the weather conditions in past years. The results will help you decide how hot, cold, wet, or windy it might be!

Date:

Astronomy

Mar. 02, 2013 Rise Set
Actual Time 6:18 AM EST 5:36 PM EST
Civil Twilight 5:50 AM EST 6:04 PM EST
Nautical Twilight 5:17 AM EST 6:37 PM EST
Astronomical Twilight 4:45 AM EST 7:09 PM EST
Moon 11:20 PM EST (3/2) 8:37 AM EST (3/2)
Length of Visible Light 12h 14m
Length of Day
11h 17m
Waning Gibbous, 74% of the Moon is Illuminated
Mar 2
Waning Gibbous
Mar 4
Last Quarter
Mar 11
New
Mar 19
First Quarter
Mar 27
Full

Hourly Weather History & Observations

Time (EST) Temp. Windchill Dew Point Humidity Pressure Visibility Wind Dir Wind Speed Gust Speed Precip Events Conditions
12:56 AM 34.0 °F 28.8 °F 25.0 °F 70% 29.71 in 10.0 mi WNW 5.8 mph - N/A   Overcast
1:56 AM 34.0 °F - 25.0 °F 70% 29.70 in 10.0 mi North - - N/A   Overcast
2:56 AM 33.1 °F 26.9 °F 25.0 °F 72% 29.70 in 10.0 mi WNW 6.9 mph - N/A   Overcast
3:56 AM 33.8 °F 27.7 °F 24.8 °F 70% 29.65 in 10.0 mi WNW 6.9 mph - N/A   Overcast
4:56 AM 33.1 °F 27.7 °F 24.1 °F 70% 29.70 in 10.0 mi West 5.8 mph - N/A   Overcast
5:56 AM 30.9 °F 25.2 °F 23.0 °F 72% 29.70 in 10.0 mi West 5.8 mph - N/A   Clear
7:56 AM 34.0 °F 27.2 °F 24.1 °F 67% 29.70 in 10.0 mi NW 8.1 mph - N/A   Scattered Clouds
8:56 AM 37.0 °F 29.3 °F 25.0 °F 62% 29.71 in 10.0 mi NNW 11.5 mph - N/A   Mostly Cloudy
9:56 AM 37.0 °F 30.4 °F 24.1 °F 59% 29.70 in 10.0 mi NW 9.2 mph - N/A   Mostly Cloudy
10:03 AM 37.4 °F 30.8 °F 24.8 °F 60% 29.66 in 10.0 mi NW 9.2 mph - N/A   Overcast
10:56 AM 39.0 °F 33.4 °F 25.0 °F 57% 29.70 in 10.0 mi NNW 8.1 mph - N/A   Overcast
11:56 AM 42.1 °F 37.7 °F 26.1 °F 53% 29.68 in 10.0 mi NW 6.9 mph - N/A   Overcast
12:56 PM 41.0 °F 38.0 °F 26.1 °F 55% 29.67 in 10.0 mi WNW 4.6 mph - N/A   Mostly Cloudy
1:56 PM 39.9 °F 36.7 °F 26.1 °F 58% 29.67 in 10.0 mi WNW 4.6 mph - N/A   Mostly Cloudy
2:56 PM 39.9 °F 37.8 °F 27.0 °F 60% 29.66 in 10.0 mi NNW 3.5 mph - N/A   Mostly Cloudy
3:56 PM 39.9 °F 37.8 °F 27.0 °F 60% 29.66 in 10.0 mi WNW 3.5 mph - N/A   Mostly Cloudy
4:56 PM 39.0 °F 36.8 °F 26.1 °F 60% 29.66 in 10.0 mi West 3.5 mph - N/A   Overcast
5:56 PM 37.9 °F 33.5 °F 26.1 °F 62% 29.68 in 10.0 mi NW 5.8 mph - N/A   Overcast
6:56 PM 37.0 °F 34.5 °F 25.0 °F 62% 29.69 in 10.0 mi NW 3.5 mph - N/A   Overcast
7:56 PM 37.0 °F 31.0 °F 23.0 °F 57% 29.69 in 10.0 mi NNW 8.1 mph - N/A   Overcast
8:56 PM 36.0 °F 29.0 °F 23.0 °F 59% 29.70 in 10.0 mi NNW 9.2 mph - N/A   Overcast
9:56 PM 35.1 °F 27.9 °F 23.0 °F 61% 29.70 in 10.0 mi NNW 9.2 mph - N/A   Overcast
10:56 PM 34.0 °F 26.6 °F 23.0 °F 64% 29.68 in 10.0 mi NW 9.2 mph - N/A   Overcast
11:56 PM 33.1 °F 26.9 °F 23.0 °F 66% 29.68 in 10.0 mi NW 6.9 mph - N/A   Overcast